Time,TemperatureF,DewpointF,PressureIn,WindDirection,WindDirectionDegrees,WindSpeedMPH,WindSpeedGustMPH,Humidity,HourlyPrecipIn,Conditions,Clouds,dailyrainin,SoftwareType,DateUTC
2013-09-01 00:10:00,78.0,73.0,29.78,SSE,164,3.0,5.0,84,0.00,,,0.00,weatherlink.com 1.10,2013-09-01 04:10:00,
2013-09-01 00:25:00,77.8,73.0,29.78,SSW,199,2.0,6.0,85,0.00,,,0.00,weatherlink.com 1.10,2013-09-01 04:25:00,
2013-09-01 00:40:00,78.2,73.0,29.78,South,181,5.0,7.0,84,0.00,,,0.00,weatherlink.com 1.10,2013-09-01 04:40:00,
2013-09-01 00:55:00,78.5,73.0,29.78,SSW,206,6.0,10.0,84,0.00,,,0.00,weatherlink.com 1.10,2013-09-01 04:55:00,
2013-09-01 01:11:00,78.6,73.0,29.78,SSW,210,9.0,10.0,83,0.00,,,0.00,weatherlink.com 1.10,2013-09-01 05:11:00,
2013-09-01 01:25:00,78.6,73.0,29.77,SSW,207,8.0,11.0,83,0.00,,,0.00,weatherlink.com 1.10,2013-09-01 05:25:00,
2013-09-01 01:40:00,78.6,73.0,29.77,ESE,121,7.0,12.0,82,0.00,,,0.00,weatherlink.com 1.10,2013-09-01 05:40:00,
2013-09-01 01:55:00,78.4,73.0,29.76,South,178,1.0,7.0,82,0.00,,,0.00,weatherlink.com 1.10,2013-09-01 05:55:00,
2013-09-01 02:10:00,78.4,73.0,29.76,SSW,207,9.0,11.0,83,0.00,,,0.00,weatherlink.com 1.10,2013-09-01 06:10:00,
2013-09-01 02:25:00,78.1,73.0,29.77,SSW,199,3.0,6.0,83,0.00,,,0.00,weatherlink.com 1.10,2013-09-01 06:25:00,
2013-09-01 02:40:00,77.3,73.0,29.76,ESE,117,2.0,6.0,85,0.00,,,0.00,weatherlink.com 1.10,2013-09-01 06:40:00,
2013-09-01 02:55:00,76.6,72.0,29.77,ESE,122,3.0,6.0,86,0.00,,,0.00,weatherlink.com 1.10,2013-09-01 06:55:00,
2013-09-01 03:10:00,76.0,72.0,29.76,SSE,147,5.0,8.0,87,0.00,,,0.00,weatherlink.com 1.10,2013-09-01 07:10:00,
2013-09-01 03:25:00,75.6,72.0,29.76,SE,127,2.0,7.0,89,0.00,,,0.00,weatherlink.com 1.10,2013-09-01 07:25:00,
2013-09-01 03:40:00,75.3,72.0,29.75,SSW,196,4.0,8.0,90,0.00,,,0.00,weatherlink.com 1.10,2013-09-01 07:40:00,
2013-09-01 03:55:00,75.3,72.0,29.75,SE,141,3.0,7.0,89,0.00,,,0.00,weatherlink.com 1.10,2013-09-01 07:55:00,
2013-09-01 04:10:00,75.4,72.0,29.76,SW,221,5.0,8.0,89,0.00,,,0.00,weatherlink.com 1.10,2013-09-01 08:10:00,
2013-09-01 04:25:00,75.4,72.0,29.76,South,179,4.0,5.0,90,0.00,,,0.00,weatherlink.com 1.10,2013-09-01 08:25:00,
2013-09-01 04:40:00,75.4,72.0,29.76,SSE,151,3.0,6.0,90,0.00,,,0.00,weatherlink.com 1.10,2013-09-01 08:40:00,
2013-09-01 04:55:00,75.4,72.0,29.77,SSE,155,5.0,7.0,89,0.00,,,0.00,weatherlink.com 1.10,2013-09-01 08:55:00,
2013-09-01 05:10:00,75.3,72.0,29.77,SE,143,3.0,6.0,90,0.00,,,0.00,weatherlink.com 1.10,2013-09-01 09:10:00,
2013-09-01 05:25:00,75.2,72.0,29.77,SSW,196,3.0,6.0,90,0.00,,,0.00,weatherlink.com 1.10,2013-09-01 09:25:00,
2013-09-01 05:40:00,75.2,72.0,29.77,South,181,3.0,7.0,90,0.00,,,0.00,weatherlink.com 1.10,2013-09-01 09:40:00,
2013-09-01 05:55:00,75.1,72.0,29.77,South,176,5.0,5.0,90,0.00,,,0.00,weatherlink.com 1.10,2013-09-01 09:55:00,
2013-09-01 06:10:00,74.8,72.0,29.77,SE,136,3.0,5.0,91,0.00,,,0.00,weatherlink.com 1.10,2013-09-01 10:10:00,
2013-09-01 06:25:00,74.7,72.0,29.78,SE,144,1.0,4.0,91,0.00,,,0.00,weatherlink.com 1.10,2013-09-01 10:25:00,
2013-09-01 06:40:00,74.4,72.0,29.78,SSE,156,3.0,5.0,91,0.00,,,0.00,weatherlink.com 1.10,2013-09-01 10:40:00,
2013-09-01 06:55:00,74.5,72.0,29.79,SE,144,2.0,4.0,91,0.00,,,0.00,weatherlink.com 1.10,2013-09-01 10:55:00,
2013-09-01 07:10:00,74.7,72.0,29.79,SE,134,2.0,5.0,91,0.00,,,0.00,weatherlink.com 1.10,2013-09-01 11:10:00,
2013-09-01 07:25:00,74.6,72.0,29.79,SSE,153,2.0,5.0,90,0.00,,,0.00,weatherlink.com 1.10,2013-09-01 11:25:00,
2013-09-01 07:40:00,75.0,72.0,29.79,SSE,153,2.0,4.0,90,0.00,,,0.00,weatherlink.com 1.10,2013-09-01 11:40:00,
2013-09-01 07:55:00,75.4,72.0,29.79,ESE,113,1.0,4.0,89,0.00,,,0.00,weatherlink.com 1.10,2013-09-01 11:55:00,
2013-09-01 08:10:00,75.7,72.0,29.80,SE,127,3.0,4.0,89,0.00,,,0.00,weatherlink.com 1.10,2013-09-01 12:10:00,
2013-09-01 08:25:00,76.5,73.0,29.79,SE,140,3.0,5.0,88,0.00,,,0.00,weatherlink.com 1.10,2013-09-01 12:25:00,
2013-09-01 08:40:00,77.3,73.0,29.80,South,184,3.0,5.0,86,0.00,,,0.00,weatherlink.com 1.10,2013-09-01 12:40:00,
2013-09-01 08:55:00,77.0,73.0,29.80,SSE,158,2.0,4.0,87,0.00,,,0.00,weatherlink.com 1.10,2013-09-01 12:55:00,
2013-09-01 09:10:00,78.0,73.0,29.80,SSE,149,4.0,4.0,85,0.00,,,0.00,weatherlink.com 1.10,2013-09-01 13:10:00,
2013-09-01 09:25:00,78.6,73.0,29.79,South,177,4.0,7.0,84,0.00,,,0.00,weatherlink.com 1.10,2013-09-01 13:25:00,
2013-09-01 09:40:00,78.8,74.0,29.80,SE,134,5.0,8.0,84,0.00,,,0.00,weatherlink.com 1.10,2013-09-01 13:40:00,
2013-09-01 09:55:00,78.1,73.0,29.80,ESE,110,4.0,8.0,85,0.00,,,0.00,weatherlink.com 1.10,2013-09-01 13:55:00,
2013-09-01 10:11:00,77.7,73.0,29.81,SE,127,3.0,7.0,86,0.00,,,0.00,weatherlink.com 1.10,2013-09-01 14:11:00,
2013-09-01 10:26:00,77.3,73.0,29.81,South,174,2.0,6.0,87,0.00,,,0.00,weatherlink.com 1.10,2013-09-01 14:26:00,
2013-09-01 10:41:00,77.1,73.0,29.80,SSW,196,2.0,6.0,88,0.00,,,0.00,weatherlink.com 1.10,2013-09-01 14:41:00,
2013-09-01 10:56:00,76.8,73.0,29.81,SW,226,4.0,7.0,88,0.00,,,0.00,weatherlink.com 1.10,2013-09-01 14:56:00,
2013-09-01 11:11:00,76.7,73.0,29.81,SSW,200,5.0,7.0,88,0.00,,,0.00,weatherlink.com 1.10,2013-09-01 15:11:00,
2013-09-01 11:26:00,76.7,73.0,29.81,SW,219,7.0,8.0,89,0.00,,,0.00,weatherlink.com 1.10,2013-09-01 15:26:00,
2013-09-01 11:41:00,77.3,73.0,29.80,SW,217,2.0,5.0,87,0.00,,,0.00,weatherlink.com 1.10,2013-09-01 15:41:00,
2013-09-01 11:56:00,78.0,74.0,29.79,SSW,203,4.0,7.0,86,0.00,,,0.00,weatherlink.com 1.10,2013-09-01 15:56:00,
2013-09-01 12:11:00,78.4,74.0,29.79,SSW,203,4.0,5.0,85,0.00,,,0.00,weatherlink.com 1.10,2013-09-01 16:11:00,
2013-09-01 12:26:00,79.4,74.0,29.78,SE,141,4.0,8.0,83,0.00,,,0.00,weatherlink.com 1.10,2013-09-01 16:26:00,
2013-09-01 12:41:00,80.1,74.0,29.78,ESE,108,3.0,7.0,82,0.00,,,0.00,weatherlink.com 1.10,2013-09-01 16:41:00,
2013-09-01 12:56:00,80.6,74.0,29.78,South,180,2.0,8.0,80,0.00,,,0.00,weatherlink.com 1.10,2013-09-01 16:56:00,
2013-09-01 13:11:00,81.0,74.0,29.78,South,172,0.0,6.0,80,0.00,,,0.00,weatherlink.com 1.10,2013-09-01 17:11:00,
2013-09-01 13:26:00,81.3,74.0,29.78,South,176,3.0,7.0,78,0.00,,,0.00,weatherlink.com 1.10,2013-09-01 17:26:00,
2013-09-01 13:41:00,82.4,74.0,29.78,SSW,196,6.0,10.0,75,0.00,,,0.00,weatherlink.com 1.10,2013-09-01 17:41:00,
2013-09-01 13:56:00,83.3,73.0,29.77,SE,146,6.0,10.0,71,0.00,,,0.00,weatherlink.com 1.10,2013-09-01 17:56:00,
2013-09-01 14:11:00,83.2,73.0,29.77,SSE,154,5.0,7.0,71,0.00,,,0.00,weatherlink.com 1.10,2013-09-01 18:11:00,
2013-09-01 14:26:00,83.3,74.0,29.77,SSE,165,3.0,7.0,73,0.00,,,0.00,weatherlink.com 1.10,2013-09-01 18:26:00,
2013-09-01 14:41:00,83.2,74.0,29.76,SE,142,6.0,8.0,74,0.00,,,0.00,weatherlink.com 1.10,2013-09-01 18:41:00,
2013-09-01 14:56:00,83.2,74.0,29.76,SE,141,8.0,9.0,74,0.00,,,0.00,weatherlink.com 1.10,2013-09-01 18:56:00,
2013-09-01 15:11:00,82.7,74.0,29.76,South,170,7.0,9.0,76,0.00,,,0.00,weatherlink.com 1.10,2013-09-01 19:11:00,
2013-09-01 15:26:00,82.3,74.0,29.76,SSE,167,5.0,9.0,76,0.00,,,0.00,weatherlink.com 1.10,2013-09-01 19:26:00,
2013-09-01 15:41:00,82.5,75.0,29.76,South,169,2.0,8.0,77,0.00,,,0.00,weatherlink.com 1.10,2013-09-01 19:41:00,
2013-09-01 15:57:00,81.7,74.0,29.76,SSW,200,3.0,11.0,78,0.00,,,0.00,weatherlink.com 1.10,2013-09-01 19:57:00,
2013-09-01 16:11:00,81.3,74.0,29.76,SSE,166,7.0,9.0,79,0.00,,,0.00,weatherlink.com 1.10,2013-09-01 20:11:00,
2013-09-01 16:26:00,81.0,74.0,29.75,ESE,120,3.0,9.0,80,0.00,,,0.00,weatherlink.com 1.10,2013-09-01 20:26:00,
2013-09-01 16:41:00,81.2,74.0,29.76,SE,144,2.0,8.0,79,0.00,,,0.00,weatherlink.com 1.10,2013-09-01 20:41:00,
2013-09-01 16:56:00,81.5,74.0,29.75,ESE,114,5.0,7.0,79,0.00,,,0.00,weatherlink.com 1.10,2013-09-01 20:56:00,
2013-09-01 17:11:00,81.3,74.0,29.75,SSE,166,5.0,10.0,79,0.00,,,0.00,weatherlink.com 1.10,2013-09-01 21:11:00,
2013-09-01 17:26:00,80.7,74.0,29.76,SSE,149,8.0,10.0,79,0.00,,,0.00,weatherlink.com 1.10,2013-09-01 21:26:00,
2013-09-01 17:41:00,79.9,74.0,29.77,SSW,200,4.0,9.0,81,0.00,,,0.00,weatherlink.com 1.10,2013-09-01 21:41:00,
2013-09-01 17:56:00,78.9,74.0,29.77,SSW,198,2.0,11.0,84,0.00,,,0.00,weatherlink.com 1.10,2013-09-01 21:56:00,
2013-09-01 18:11:00,78.1,74.0,29.76,SE,134,4.0,10.0,86,0.00,,,0.00,weatherlink.com 1.10,2013-09-01 22:11:00,
2013-09-01 18:26:00,77.8,74.0,29.76,South,188,5.0,8.0,87,0.00,,,0.00,weatherlink.com 1.10,2013-09-01 22:26:00,
2013-09-01 18:41:00,77.7,74.0,29.75,SSE,162,2.0,7.0,87,0.00,,,0.00,weatherlink.com 1.10,2013-09-01 22:41:00,
2013-09-01 18:56:00,77.5,74.0,29.75,SSE,154,2.0,8.0,88,0.00,,,0.00,weatherlink.com 1.10,2013-09-01 22:56:00,
2013-09-01 19:11:00,77.1,73.0,29.76,SE,141,6.0,7.0,88,0.00,,,0.00,weatherlink.com 1.10,2013-09-01 23:11:00,
2013-09-01 19:26:00,76.8,73.0,29.76,SSE,148,2.0,9.0,89,0.00,,,0.00,weatherlink.com 1.10,2013-09-01 23:26:00,
2013-09-01 19:41:00,76.7,73.0,29.76,SE,144,2.0,6.0,89,0.00,,,0.00,weatherlink.com 1.10,2013-09-01 23:41:00,
2013-09-01 19:56:00,76.4,73.0,29.76,SSE,155,6.0,7.0,89,0.00,,,0.00,weatherlink.com 1.10,2013-09-01 23:56:00,
2013-09-01 20:11:00,76.3,73.0,29.76,ESE,110,2.0,5.0,90,0.00,,,0.00,weatherlink.com 1.10,2013-09-02 00:11:00,
2013-09-01 20:26:00,76.4,73.0,29.77,SSW,199,2.0,5.0,90,0.00,,,0.00,weatherlink.com 1.10,2013-09-02 00:26:00,
2013-09-01 20:41:00,76.2,74.0,29.77,SE,145,2.0,6.0,91,0.00,,,0.00,weatherlink.com 1.10,2013-09-02 00:41:00,
2013-09-01 20:56:00,76.1,73.0,29.77,ESE,118,4.0,5.0,91,0.00,,,0.00,weatherlink.com 1.10,2013-09-02 00:56:00,
2013-09-01 21:11:00,76.2,74.0,29.78,SSE,153,3.0,4.0,92,0.00,,,0.00,weatherlink.com 1.10,2013-09-02 01:11:00,
2013-09-01 21:26:00,76.2,74.0,29.79,SSE,164,2.0,6.0,92,0.00,,,0.00,weatherlink.com 1.10,2013-09-02 01:26:00,
2013-09-01 21:41:00,76.2,74.0,29.78,SSE,165,3.0,7.0,92,0.00,,,0.00,weatherlink.com 1.10,2013-09-02 01:41:00,
2013-09-01 21:56:00,76.2,74.0,29.79,SE,139,2.0,9.0,92,0.00,,,0.00,weatherlink.com 1.10,2013-09-02 01:56:00,
2013-09-01 22:11:00,76.1,74.0,29.79,SE,146,1.0,5.0,92,0.00,,,0.00,weatherlink.com 1.10,2013-09-02 02:11:00,
2013-09-01 22:26:00,76.0,74.0,29.78,SE,134,1.0,4.0,92,0.00,,,0.00,weatherlink.com 1.10,2013-09-02 02:26:00,
2013-09-01 22:41:00,75.9,74.0,29.78,South,169,3.0,5.0,93,0.00,,,0.00,weatherlink.com 1.10,2013-09-02 02:41:00,
2013-09-01 22:56:00,75.8,74.0,29.77,SW,221,4.0,7.0,93,0.00,,,0.00,weatherlink.com 1.10,2013-09-02 02:56:00,
2013-09-01 23:11:00,75.5,73.0,29.77,SSE,164,3.0,7.0,92,0.00,,,0.00,weatherlink.com 1.10,2013-09-02 03:11:00,
2013-09-01 23:26:00,75.4,73.0,29.77,South,184,2.0,4.0,93,0.00,,,0.00,weatherlink.com 1.10,2013-09-02 03:26:00,
2013-09-01 23:41:00,75.4,73.0,29.76,SW,219,1.0,5.0,93,0.00,,,0.00,weatherlink.com 1.10,2013-09-02 03:41:00,
2013-09-01 23:56:00,75.5,73.0,29.76,South,180,0.0,4.0,93,0.00,,,0.00,weatherlink.com 1.10,2013-09-02 03:56:00,